Gaz Palmyra — 3FCO4 — position and weather

sailwx.info

Track history (hours):
 
Tides and Currents Weather Stations Pressure Air Temp Water Temp Dewpoint Dewpoint Depression Visibility Wind Speed Wind Dir Waves Ship Positions

Gaz Palmyra

Last reported at 2014-Jul-26 15:10 UTC. Time now 2014-Jul-28 20:35 UTC.
Position N 36°46' E 003°05'.

Length 137 m; draft 8.1 m.

Type: Ship (hazmat cat C). MMSI: 353247000.

Date/timePositionNaut miles runAvg speedWind from/ knotsBaromVisibWave heightAir tempDewpointWater temp
2014-Jul-26 15:10N 36°46' E 003°05'2 0.1
2014-Jul-25 22:32N 36°46' E 003°06'0 0.0
2014-Jul-25 21:32N 36°46' E 003°06'0 0.0
2014-Jul-25 19:26N 36°46' E 003°06'0 0.0
2014-Jul-25 17:29N 36°46' E 003°06'0 0.0
2014-Jul-25 13:05N 36°46' E 003°06'0 0.0
2014-Jul-25 11:23N 36°46' E 003°06'0 0.0
2014-Jul-25 10:32N 36°46' E 003°06'0 0.0
2014-Jul-25 09:32N 36°46' E 003°06'0 0.0
2014-Jul-25 06:23N 36°46' E 003°06'0 0.0
2014-Jul-25 05:32N 36°46' E 003°06'0 0.0
2014-Jul-25 02:11N 36°46' E 003°06'0 0.1
2014-Jul-25 01:29N 36°46' E 003°06'0 0.0
2014-Jul-24 23:29N 36°46' E 003°06'0 0.0
2014-Jul-24 22:05N 36°46' E 003°06'0 0.0
2014-Jul-24 21:23N 36°46' E 003°06'0 0.0
2014-Jul-24 20:23N 36°46' E 003°06'0 0.0
2014-Jul-24 19:32N 36°46' E 003°06'0 0.0
2014-Jul-24 18:29N 36°46' E 003°06'0 0.0
2014-Jul-24 17:32N 36°46' E 003°06'0 0.1
2014-Jul-24 16:29N 36°46' E 003°06'0 0.0
2014-Jul-24 15:32N 36°46' E 003°06'0 0.1
2014-Jul-24 14:05N 36°46' E 003°06'0 0.1
2014-Jul-24 13:32N 36°46' E 003°06'0 0.0
2014-Jul-24 12:29N 36°46' E 003°06'0 0.0
2014-Jul-24 11:32N 36°46' E 003°06'0 0.0
2014-Jul-24 10:29N 36°46' E 003°06'0 0.0
2014-Jul-24 09:29N 36°46' E 003°06'0 0.0
2014-Jul-24 02:11N 36°46' E 003°06'0 0.0
2014-Jul-24 00:17N 36°46' E 003°06'0 0.0
2014-Jul-23 18:11N 36°46' E 003°06'0 0.0
2014-Jul-23 17:11N 36°46' E 003°06'0 0.0
2014-Jul-23 15:17N 36°46' E 003°06'0 0.0
2014-Jul-23 13:17N 36°46' E 003°06'0 0.0
2014-Jul-23 12:05N 36°46' E 003°06'0 0.0
2014-Jul-23 11:11N 36°46' E 003°06'0 0.0
2014-Jul-23 08:29N 36°46' E 003°06'0 0.0
2014-Jul-23 07:29N 36°46' E 003°06'0 0.0
2014-Jul-23 06:23N 36°46' E 003°06'0 0.0
2014-Jul-23 02:32N 36°46' E 003°06'0 0.0
2014-Jul-23 01:33N 36°46' E 003°06'5 5.4
2014-Jul-23 00:33N 36°51' E 003°03'1312.8
2014-Jul-22 23:34N 36°52' E 002°47'1514.7
2014-Jul-22 22:32N 36°51' E 002°28'1414.1
2014-Jul-22 21:33N 36°50' E 002°11'1414.0
2014-Jul-22 20:33N 36°49' E 001°54'1414.0
2014-Jul-22 19:33N 36°48' E 001°36'1913.6
2014-Jul-22 18:09N 36°46' E 001°13'813.4
2014-Jul-22 17:33N 36°45' E 001°03'1313.4
2014-Jul-22 16:33N 36°39' E 000°48'1413.4
2014-Jul-22 15:32N 36°32' E 000°33'1413.7
2014-Jul-22 14:33N 36°22' E 000°22'1413.9
2014-Jul-22 13:33N 36°12' E 000°10'1413.7
2014-Jul-22 12:32N 36°01' W 000°01'1313.2
2014-Jul-22 11:33N 35°51' W 000°11'4 0.2
2014-Jul-21 13:33N 35°49' W 000°15'139 7.7
2014-Jul-20 19:32N 36°51' E 002°20'1511.5
2014-Jul-20 18:16N 36°51' E 002°38'  
2014-Jul-17 05:03N 36°46' E 003°05'0 0.0
2014-Jul-17 04:30N 36°46' E 003°05'0 0.0
2014-Jul-16 19:15N 36°46' E 003°05'0 0.0
2014-Jul-16 16:25N 36°46' E 003°05'  
Track history (hours):
 
Tides and Currents Weather Stations Pressure Air Temp Water Temp Dewpoint Dewpoint Depression Visibility Wind Speed Wind Dir Waves Ship Positions

Gaz Palmyra

Last reported at 2014-Jul-26 15:10 UTC. Time now 2014-Jul-28 20:35 UTC.
Position N 36°46' E 003°05'.

Length 137 m; draft 8.1 m.

Type: Ship (hazmat cat C). MMSI: 353247000.

Date/timePositionNaut miles runAvg speedWind from/ knotsBaromVisibWave heightAir tempDewpointWater temp
2014-Jul-26 15:10N 36°46' E 003°05'2 0.1
2014-Jul-25 22:32N 36°46' E 003°06'0 0.0
2014-Jul-25 21:32N 36°46' E 003°06'0 0.0
2014-Jul-25 19:26N 36°46' E 003°06'0 0.0
2014-Jul-25 17:29N 36°46' E 003°06'0 0.0
2014-Jul-25 13:05N 36°46' E 003°06'0 0.0
2014-Jul-25 11:23N 36°46' E 003°06'0 0.0
2014-Jul-25 10:32N 36°46' E 003°06'0 0.0
2014-Jul-25 09:32N 36°46' E 003°06'0 0.0
2014-Jul-25 06:23N 36°46' E 003°06'0 0.0
2014-Jul-25 05:32N 36°46' E 003°06'0 0.0
2014-Jul-25 02:11N 36°46' E 003°06'0 0.1
2014-Jul-25 01:29N 36°46' E 003°06'0 0.0
2014-Jul-24 23:29N 36°46' E 003°06'0 0.0
2014-Jul-24 22:05N 36°46' E 003°06'0 0.0
2014-Jul-24 21:23N 36°46' E 003°06'0 0.0
2014-Jul-24 20:23N 36°46' E 003°06'0 0.0
2014-Jul-24 19:32N 36°46' E 003°06'0 0.0
2014-Jul-24 18:29N 36°46' E 003°06'0 0.0
2014-Jul-24 17:32N 36°46' E 003°06'0 0.1
2014-Jul-24 16:29N 36°46' E 003°06'0 0.0
2014-Jul-24 15:32N 36°46' E 003°06'0 0.1
2014-Jul-24 14:05N 36°46' E 003°06'0 0.1
2014-Jul-24 13:32N 36°46' E 003°06'0 0.0
2014-Jul-24 12:29N 36°46' E 003°06'0 0.0
2014-Jul-24 11:32N 36°46' E 003°06'0 0.0
2014-Jul-24 10:29N 36°46' E 003°06'0 0.0
2014-Jul-24 09:29N 36°46' E 003°06'0 0.0
2014-Jul-24 02:11N 36°46' E 003°06'0 0.0
2014-Jul-24 00:17N 36°46' E 003°06'0 0.0
2014-Jul-23 18:11N 36°46' E 003°06'0 0.0
2014-Jul-23 17:11N 36°46' E 003°06'0 0.0
2014-Jul-23 15:17N 36°46' E 003°06'0 0.0
2014-Jul-23 13:17N 36°46' E 003°06'0 0.0
2014-Jul-23 12:05N 36°46' E 003°06'0 0.0
2014-Jul-23 11:11N 36°46' E 003°06'0 0.0
2014-Jul-23 08:29N 36°46' E 003°06'0 0.0
2014-Jul-23 07:29N 36°46' E 003°06'0 0.0
2014-Jul-23 06:23N 36°46' E 003°06'0 0.0
2014-Jul-23 02:32N 36°46' E 003°06'0 0.0
2014-Jul-23 01:33N 36°46' E 003°06'5 5.4
2014-Jul-23 00:33N 36°51' E 003°03'1312.8
2014-Jul-22 23:34N 36°52' E 002°47'1514.7
2014-Jul-22 22:32N 36°51' E 002°28'1414.1
2014-Jul-22 21:33N 36°50' E 002°11'1414.0
2014-Jul-22 20:33N 36°49' E 001°54'1414.0
2014-Jul-22 19:33N 36°48' E 001°36'1913.6
2014-Jul-22 18:09N 36°46' E 001°13'813.4
2014-Jul-22 17:33N 36°45' E 001°03'1313.4
2014-Jul-22 16:33N 36°39' E 000°48'1413.4
2014-Jul-22 15:32N 36°32' E 000°33'1413.7
2014-Jul-22 14:33N 36°22' E 000°22'1413.9
2014-Jul-22 13:33N 36°12' E 000°10'1413.7
2014-Jul-22 12:32N 36°01' W 000°01'1313.2
2014-Jul-22 11:33N 35°51' W 000°11'4 0.2
2014-Jul-21 13:33N 35°49' W 000°15'139 7.7
2014-Jul-20 19:32N 36°51' E 002°20'1511.5
2014-Jul-20 18:16N 36°51' E 002°38'  
2014-Jul-17 05:03N 36°46' E 003°05'0 0.0
2014-Jul-17 04:30N 36°46' E 003°05'0 0.0
2014-Jul-16 19:15N 36°46' E 003°05'0 0.0
2014-Jul-16 16:25N 36°46' E 003°05'  

Dump ship's entire track history